Regional Weather Roundup
Issued by NWS Midland/Odessa, TX

Skip options and go directly to product.
Home | Oldest Version | Next Version | Current Version | All | Text Only | Save Text | Print | Product List | Glossary On

Skip product version selection by date and time.   
250
ASUS44 KMAF 290401
RWRMAF
MIDLAND AREA WEATHER ROUNDUP
NATIONAL WEATHER SERVICE MIDLAND TX
1100 PM CDT THU MAY 28 2015

...IN SOUTHWEST TEXAS AND SOUTHEAST NEW MEXICO...

CITY           SKY/WX    TMP DP  RH WIND       PRES   REMARKS
ALPINE         PTCLDY    60  55  85 W6        30.06S
ANDREWS        FAIR      60  60  99 SE13G18   29.98R
ARTESIA        MOCLDY    68  55  64 SE17      29.95F
BIG SPRING     CLOUDY    64  59  86 E14       29.95R
CARLSBAD       MOCLDY    68  55  63 E10       29.96R
DRYDEN           N/A     62  57  83 NE17G28   29.94R
FORT STOCKTON  CLOUDY    65  56  72 SE23G31   29.93R
GUAD PASS      CLEAR     73  21  14 W8        30.06R
HOBBS          CLOUDY    63  55  77 E13       30.02R
MARFA          CLEAR     59  52  77 N7        30.05R
MIDLAND AIRPK  CLOUDY    62  58  87 E18       29.95R
MIDLAND INTL   CLOUDY    62  57  83 E12G25    29.89F
ODESSA         CLOUDY    62  57  83 NE16      29.94R
PECOS          CLOUDY    64  60  86 CALM      29.92R
PRESIDIO       FAIR      83  23  11 MISG      29.85R
SEMINOLE       CLOUDY    60  55  84 NE12G22   30.06R
SNYDER         CLOUDY    61  59  92 SE15      29.93S
WINK           CLOUDY    66  54  65 NE8       29.95R
$$
...OTHER STATIONS IN TEXAS...

CITY           SKY/WX    TMP DP  RH WIND       PRES   REMARKS
ABILENE        TSTM      63  62  97 S7        30.04R
AMARILLO       CLOUDY    62  51  67 E9        30.00R
AUSTIN         PTCLDY    76  73  91 S8        29.96R
BROWNSVILLE    MOCLDY    80  76  87 SE9       29.97R
CORPUS CHRISTI CLOUDY    80  75  84 SE14      29.96R
DALLAS FTW     TSTM      66  65  96 N16       29.97R
DEL RIO        MOCLDY    82  72  71 NE13      29.93R
EL PASO        CLEAR     86  14   7 W13       29.93R
HOUSTON INT    PTCLDY    78  74  87 SE9       29.98S
LUBBOCK        CLOUDY    62  55  77 SW20      29.97R
SAN ANGELO     RAIN      63  61  93 SE8       30.10R
SAN ANTONIO    CLOUDY    79  72  79 SE15      29.97R
WACO           CLOUDY    77  70  79 SE13G21   29.94S
WICHITA FALLS  NOT AVBL
$$
...OTHER LOCATIONS IN NEW MEXICO...

CITY           SKY/WX    TMP DP  RH WIND       PRES   REMARKS
ALAMAGORDO     CLEAR     68  19  15 SE9       29.95R
ALBUQUERQUE    CLEAR     75  29  18 N9        30.04R
CANNON AFB     NOT AVBL
CLOVIS         CLOUDY    59  55  88 SW9       29.90F
HOLLOMAN AFB   NOT AVBL
ROSWELL        MOCLDY    67  55  65 S12       29.94R
RUIDOSO        CLEAR     63  19  19 SW9       30.14R
SANTA FE       CLEAR     63  27  25 N13       30.10R
TRUTH OR CONSE CLEAR     78  17  10 W12       29.98R
TUCUMCARI      CLOUDY    64  56  75 E8        29.95R
$$

USA.gov is the U.S. government's official web portal to all federal, state and local government web resources and services.